Showing default

A-1 (ASTERIX), 1778

Orbit data source: Space-Track

A-1 (ASTERIX), 1778 is a payload satellite owned by CNES (FR) in LEO that was launched on Fri, 26 Nov 1965 UTC via a DIAMANT A launch vehicle from the Hamma Guira Space Track Range (HGSTR). Payload-class satellites include a variety of spacecraft equipped with specific instruments for various scientific and technological missions. These include communications satellites like Starlink; space stations such as the ISS; scientific satellites like the Hubble; Earth observation satellites from companies like Planet Labs, Umbra, and HawkEye 360; GPS; miniature CubeSats for education and research; and military/defense satellites.

Loading next visibility...
Identifier
1778, 1965-096A
Orbit
LEO
Last TLE update
22 hours ago
Origin
Manufacturer
CNES
Mission
Civil Technology
Bus & Motor
A-1, Unknown motor
Mass
42 kg wet, 42 kg dry
Launch date (UTC)
1965-11-26 (60 years ago)
Launch vehicle
DIAMANT A
Launch site
Hamma Guira Space Track Range (HGSTR)
Object type
Payload
Rocket body
Debris
Shape & HBR
Poly, 0.55 m
Radar Cross Section
0.337 m², Medium (>0.1 m² and < 1m²)

Expand to show TLE details & history

TLE from 22 hours ago
0 A-1 (ASTERIX)
1 01778U 65096A   25182.15081234  .00000128  00000-0  30092-4 0  9990
2 01778  34.2584 132.8962 0742063 239.2819 113.2689 13.49316453917341
Epoch: 2025-07-01T03:37Z
TLE epoch observation values (Epoch: 2025-07-01T03:37:10.186Z)
Latitude
-0.00003°
Longitude
159.15333°
Altitude
1,325.174 km
Speed
7.074 km/s
True Right ascension
08h 51m 35s
True Declination
0° 00' 00"
Sunlit
Object was in daylight at epoch
Visualization orbit readout
Latitude
16.43943°
Longitude
-50.83707°
Altitude
1,088.681 km
Speed
7.303 km/s
Apparent Right ascension
21h 19m 34s
Apparent Declination
-13° 44' 44"
Sunlit
Object is in full shadow
Visualization observer readout
Local Sidereal Time
13:26:01
Azimuth
82.396° E
Elevation
-30.442°
Doppler factor
1
Orbital elements
Apogee altitude
1,631.192 km
Perigee altitude
524.621 km
Semi-major axis
7,456.043 km
Eccentricity
0.07421
Inclination
34.2584°
RAAN
132.8962°
Arg. of periapsis
239.2819°
True anomaly
Unknown
Mean anomaly
113.2689°
Eccentric anomaly
Unknown
Mean motion
3.37117 °/min
Orbital period
106.79 mins
BSTAR
0.000030092
Loading maneuver chart data...
Loading SW <> Apogee altitude chart data...
Loading historical data...
Loading historical data...
Loading historical data...
Loading historical data...
Loading historical data...
Loading historical data...
Loading historical data...
Other satellites on launch #96 in the year 1965 (1965-11-26 UTC)

A-1 (ASTERIX) Visibility forecast

Observer location: undefined°, undefined°

Span
Click to sort rows by Start time (UTC) header in descending order
Start Az.
Max El. time (UTC)
Max El. Az.
Max El.
End time (UTC)
End Az.
18 mins2025-07-02 03:04:03.611Z260.894° W2025-07-02 03:14:03.611Z178.842° S41.52°2025-07-02 03:22:03.611Z107.657° ESE
14 mins2025-07-02 05:00:03.611Z265.234° W2025-07-02 05:07:03.611Z209.058° SW34.545°2025-07-02 05:14:03.611Z137.465° SSE
8 mins2025-07-02 06:56:03.611Z248.996° W2025-07-02 07:00:03.611Z218.128° SW16.749°2025-07-02 07:04:03.611Z184.331° SSW
13 mins2025-07-02 22:24:03.611Z185.797° SSW2025-07-02 22:30:03.611Z140.157° SSE22.324°2025-07-02 22:37:03.611Z96.588° ESE
17 mins2025-07-03 00:15:03.611Z227.231° WSW2025-07-03 00:23:03.611Z155.233° SSE37.061°2025-07-03 00:32:03.611Z91.255° ESE
|